FW1093 Weather Reports


time (UTC)temp
F
wind
direction
speed
knots
gust
knots
rain 1hr
in
rain 24hr
in
rain mn
in
humidity
%
barometer
mb
20260507101327 47 262 0.0 0.0 0.00 0.23 0.17 95 1009.6
20260507100335 47 282 0.0 0.0 0.01 0.23 0.17 95 1009.4
20260507095345 47 282 0.0 0.0 0.01 0.23 0.17 95 1009.2
20260507094315 47 281 0.0 0.0 0.01 0.23 0.17 95 1009.3
20260507093325 47 281 0.0 0.0 0.02 0.23 0.17 95 1009.2
20260507092334 47 281 0.0 0.0 0.02 0.23 0.17 95 1008.9
20260507091322 47 281 0.0 0.0 0.03 0.23 0.17 95 1008.6
20260507090330 47 281 0.0 0.0 0.03 0.22 0.16 95 1008.9
20260507085323 47 281 0.0 0.9 0.03 0.22 0.16 95 1009.5
20260507084332 47 259 0.0 0.0 0.03 0.22 0.16 95 1008.2
20260507083338 47 259 0.0 0.9 0.03 0.21 0.15 94 1008.8
20260507082326 47 268 0.0 1.7 0.05 0.21 0.15 94 1008.6
20260507081314 48 291 0.0 1.7 0.05 0.20 0.14 94 1008.9
20260507080323 48 304 0.0 0.9 0.06 0.19 0.13 94 1009.6
20260507075315 48 304 0.0 0.9 0.07 0.19 0.13 94 1009.0
20260507074323 48 271 0.0 0.9 0.07 0.18 0.12 94 1008.9
20260507073313 48 267 0.0 1.7 0.08 0.17 0.11 94 1009.1
20260507072347 49 359 0.0 0.9 0.09 0.16 0.10 94 1009.4
20260507071336 49 283 0.0 3.5 0.08 0.14 0.08 94 1008.8
20260507070324 49 252 0.0 0.9 0.07 0.13 0.07 93 1008.8
20260507065331 49 360 0.0 1.7 0.06 0.12 0.06 92 1009.0
20260507064320 49 303 0.0 0.0 0.04 0.10 0.04 92 1008.9
20260507063326 50 314 0.0 0.0 0.03 0.09 0.03 91 1008.9
20260507062314 50 313 0.0 2.6 0.01 0.07 0.01 90 1008.6
20260507061330 51 291 0.0 1.7 0.00 0.06 0.00 90 1008.7
20260507060319 51 290 0.0 0.9 0.00 0.06 0.00 88 1008.1
20260507055323 51 272 0.0 0.9 0.00 0.06 0.00 88 1008.2
20260507054330 51 280 0.0 0.9 0.00 0.06 0.00 88 1008.5
20260507052329 52 272 0.0 3.5 0.00 0.06 0.00 88 1008.5
20260507051318 52 342 0.9 3.5 0.00 0.06 0.00 88 1008.6
20260507050327 52 16 0.0 2.6 0.00 0.06 0.00 89 1008.6
20260507045315 52 41 0.9 1.7 0.00 0.06 0.00 89 1008.5
20260507044351 53 289 0.0 0.9 0.00 0.06 0.00 90 1008.8
20260507043319 53 333 0.0 0.9 0.00 0.06 0.00 90 1008.8
20260507042335 53 310 0.0 2.6 0.00 0.06 0.00 90 1008.8
20260507041324 53 307 0.0 0.9 0.00 0.06 0.00 90 1008.9
20260507040312 54 306 0.0 0.9 0.00 0.06 0.00 90 1008.5
20260507034329 54 245 0.0 2.6 0.00 0.06 0.06 90 1008.4
20260507033316 54 276 0.0 1.7 0.00 0.06 0.06 91 1008.6
20260507032325 55 270 0.0 1.7 0.00 0.06 0.06 91 1008.5
20260507031314 55 300 0.9 4.3 0.00 0.06 0.06 91 1008.7
20260507030330 56 334 0.0 3.5 0.00 0.06 0.06 92 1008.7
20260507025337 57 319 0.9 3.5 0.00 0.06 0.06 92 1008.7
20260507024327 59 204 0.0 0.0 0.00 0.06 0.06 96 1008.5
20260507023315 59 162 0.0 0.0 0.00 0.06 0.06 96 1008.4
20260507022329 59 162 0.0 0.0 0.00 0.06 0.06 96 1008.2
20260507021318 59 141 0.0 0.0 0.00 0.06 0.06 96 1008.1
20260507020335 59 144 0.0 0.0 0.00 0.06 0.06 96 1008.1
20260507015326 59 134 0.0 0.0 0.00 0.06 0.06 96 1008.2
20260507014333 59 132 0.0 0.9 0.00 0.06 0.06 95 1008.1
20260507013326 59 195 0.0 0.9 0.00 0.06 0.06 95 1008.3
20260507012316 59 144 0.0 0.0 0.00 0.06 0.06 95 1008.1
20260507011353 59 134 0.0 0.9 0.00 0.06 0.06 95 1008.1
20260507010321 59 124 0.0 0.0 0.00 0.06 0.06 95 1008.0
20260507005311 59 166 0.0 0.0 0.00 0.06 0.06 95 1008.0
20260507004346 59 166 0.0 1.7 0.00 0.06 0.06 95 1007.8
20260507003333 59 139 0.0 0.0 0.00 0.06 0.06 95 1007.9
20260507002329 59 141 0.0 1.7 0.00 0.06 0.06 95 1007.9
20260507001319 59 169 0.0 0.0 0.00 0.06 0.06 95 1007.9
20260507000328 59 107 0.0 0.0 0.00 0.06 0.06 95 1007.7
20260506235317 59 105 0.0 0.0 0.00 0.06 0.06 95 1007.8
20260506234327 59 156 0.0 1.7 0.00 0.06 0.06 95 1007.8
20260506233337 59 127 0.9 1.7 0.00 0.06 0.06 95 1008.0
20260506232345 59 115 0.0 0.9 0.00 0.06 0.06 95 1007.9
20260506231333 59 135 0.0 1.7 0.00 0.06 0.06 95 1007.8
20260506230322 59 284 0.0 0.9 0.00 0.06 0.06 95 1007.7
20260506225312 59 115 0.0 0.9 0.00 0.06 0.06 95 1007.4
20260506224328 59 125 0.0 0.0 0.00 0.06 0.06 95 1007.4
20260506223315 59 122 0.0 0.9 0.00 0.06 0.06 95 1007.3
20260506222324 59 143 0.0 1.7 0.00 0.06 0.06 95 1007.3
20260506221315 59 127 0.0 1.7 0.00 0.06 0.06 95 1007.3
20260506220351 59 142 0.0 0.0 0.00 0.06 0.06 95 1007.3
20260506215319 59 156 0.0 0.9 0.00 0.06 0.06 95 1007.1
20260506214327 59 137 0.0 0.0 0.00 0.06 0.06 95 1007.1
20260506213335 59 143 0.0 0.0 0.00 0.06 0.06 94 1007.1
20260506212345 58 145 0.0 1.7 0.01 0.06 0.06 94 1007.0
20260506211313 58 153 0.0 0.0 0.01 0.06 0.06 94 1006.9
20260506210329 58 153 0.0 0.0 0.01 0.06 0.06 94 1006.9
20260506205317 59 134 0.0 0.0 0.01 0.06 0.06 94 1006.9
20260506204335 59 143 0.0 0.9 0.01 0.06 0.06 94 1007.0
20260506203341 59 160 0.0 0.0 0.00 0.05 0.05 93 1007.2
20260506202330 59 166 0.0 0.0 0.00 0.05 0.05 93 1007.3
20260506201320 59 160 0.0 0.0 0.00 0.05 0.05 93 1007.5
20260506200328 59 124 0.0 0.0 0.00 0.05 0.05 93 1007.6
20260506195318 59 146 0.0 0.9 0.00 0.05 0.05 93 1007.6
20260506194326 59 139 0.0 0.0 0.00 0.05 0.05 93 1007.7
20260506193312 59 139 0.0 0.0 0.00 0.05 0.05 93 1007.8
20260506192348 59 144 0.0 1.7 0.01 0.05 0.05 93 1008.1
20260506191336 59 146 0.0 0.9 0.01 0.05 0.05 93 1008.0
20260506190330 59 101 0.9 2.6 0.02 0.05 0.05 92 1008.1
20260506185315 59 187 0.9 3.5 0.02 0.05 0.05 92 1008.3
20260506184324 58 231 0.0 1.7 0.02 0.05 0.05 92 1008.3
20260506183331 59 134 0.0 0.0 0.03 0.05 0.05 92 1008.4
20260506182340 58 153 0.0 3.5 0.02 0.04 0.04 92 1008.6
20260506181313 58 126 0.0 2.6 0.04 0.04 0.04 92 1008.8
20260506180344 58 142 0.9 2.6 0.03 0.03 0.03 91 1008.8
20260506175318 59 141 0.0 1.7 0.03 0.03 0.03 90 1008.6
20260506174343 59 122 0.0 0.9 0.03 0.03 0.03 90 1008.6
20260506173316 59 285 0.0 0.9 0.02 0.02 0.02 89 1008.5
20260506172331 60 105 0.0 1.7 0.01 0.01 0.01 87 1008.6
20260506171343 61 178 0.0 0.0 0.00 0.00 0.00 85 1009.0
20260506170337 61 125 0.0 0.9 0.00 0.00 0.00 83 1009.5
20260506165327 62 105 0.0 0.9 0.00 0.00 0.00 80 1009.7
20260506164342 63 63 0.0 0.9 0.00 0.00 0.00 79 1009.6
20260506163330 63 103 0.0 1.7 0.00 0.00 0.00 78 1009.5
20260506162337 64 225 0.0 1.7 0.00 0.00 0.00 78 1009.4
20260506161326 64 160 0.9 2.6 0.00 0.00 0.00 76 1009.5
20260506160315 64 231 0.0 6.1 0.00 0.00 0.00 76 1009.7
20260506155331 64 179 0.0 2.6 0.00 0.00 0.00 77 1009.8
20260506154317 64 235 0.0 2.6 0.00 0.00 0.00 76 1010.0
20260506153326 65 97 0.0 2.6 0.00 0.00 0.00 75 1009.9
20260506152335 65 207 0.0 3.5 0.00 0.00 0.00 76 1010.2
20260506151325 65 132 0.9 3.5 0.00 0.00 0.00 74 1009.9
20260506150333 65 157 0.0 3.5 0.00 0.00 0.00 75 1009.8
20260506145324 65 13 0.0 2.6 0.00 0.00 0.00 75 1009.9
20260506144331 66 133 0.9 3.5 0.00 0.00 0.00 73 1009.9
20260506143322 66 158 0.9 3.5 0.00 0.00 0.00 73 1009.8
20260506142330 66 135 0.0 1.7 0.00 0.00 0.00 74 1010.2
20260506141338 66 71 0.0 1.7 0.00 0.00 0.00 75 1010.1
20260506140335 65 198 0.0 4.3 0.00 0.00 0.00 76 1010.1
20260506135322 64 204 0.0 2.6 0.00 0.00 0.00 77 1010.1
20260506134339 64 320 0.0 2.6 0.00 0.00 0.00 77 1010.2
20260506133334 64 125 0.0 2.6 0.00 0.00 0.00 79 1010.2
20260506132325 63 140 0.0 3.5 0.00 0.00 0.00 80 1010.1
20260506131314 62 128 0.9 4.3 0.00 0.00 0.00 80 1010.0
20260506130328 62 152 0.0 1.7 0.00 0.00 0.00 81 1009.9
20260506125329 62 266 0.0 2.6 0.00 0.00 0.00 82 1010.0
20260506124338 61 165 0.0 3.5 0.00 0.00 0.00 83 1010.1
20260506123333 61 158 0.9 2.6 0.00 0.00 0.00 83 1010.2
20260506122322 61 172 0.0 1.7 0.00 0.00 0.00 83 1010.4
20260506121312 60 149 0.9 4.3 0.00 0.00 0.00 85 1010.7
20260506120321 60 184 0.9 3.5 0.00 0.00 0.00 86 1010.6
20260506115329 59 158 0.0 2.6 0.00 0.00 0.00 87 1010.4
20260506114320 58 121 0.0 4.3 0.00 0.00 0.00 88 1010.3
20260506113357 58 269 0.0 1.7 0.00 0.00 0.00 88 1010.3
20260506112325 58 199 0.0 2.6 0.00 0.00 0.00 89 1010.4
20260506111319 57 174 0.0 0.9 0.00 0.00 0.00 90 1010.5
20260506110351 57 110 0.0 0.9 0.00 0.00 0.00 90 1010.3
20260506105323 56 151 0.0 0.9 0.00 0.00 0.00 91 1010.5
20260506104332 56 150 0.0 0.9 0.00 0.00 0.00 91 1010.5
20260506103320 56 158 0.0 2.6 0.00 0.00 0.00 91 1010.2
20260506102335 55 106 0.0 0.9 0.00 0.00 0.00 91 1010.4